Regional Weather Roundup
Issued by NWS Burlington, VT

Home | Current Version | Previous Version | Text Only | Print | Product List | Glossary On
Versions: 1 2 3 4 5 6 7 8 9 10 11 12 13 14 15 16 17 18 19 20 21 22 23 24 25 26 27 28 29 30 31 32 33 34 35 36 37 38 39 40 41 42 43 44 45 46 47 48 49 50
000
ASUS41 KBTV 301830
RWRBTV
VERMONT REGIONAL WEATHER ROUNDUP
NATIONAL WEATHER SERVICE BURLINGTON VT
200 PM EDT SUN AUG 30 2015

NOTE: "FAIR" INDICATES FEW OR NO CLOUDS BELOW 12,000 FEET WITH NO
SIGNIFICANT WEATHER AND/OR OBSTRUCTIONS TO VISIBILITY.

* THESE REPORTS ARE NOT UNDER NWS QUALITY CONTROL AND/OR DO NOT
  REPORT WEATHER SUCH AS PRECIPITATION AND FOG.

VTZ001>019-301900-
_____VERMONT_____


CITY           SKY/WX    TMP DP  RH WIND       PRES   REMARKS
BURLINGTON     MOSUNNY   81  59  47 VRB6      30.04F
6HR MIN TEMP:  66; 6HR MAX TEMP:  81;

MONTPELIER     PTSUNNY   76  58  53 N7        30.11F
6HR MIN TEMP:  60; 6HR MAX TEMP:  76;

MORRISVILLE    MOSUNNY   79  59  50 CALM      30.07F
6HR MIN TEMP:  63; 6HR MAX TEMP:  79;

ST. JOHNSBURY*   N/A     75  59  57 MISG      30.04F
6HR MIN TEMP:  61; 6HR MAX TEMP:  76;

LYNDONVILLE*   PTSUNNY   77  59  53 SW8       30.08F
6HR MIN TEMP:  60; 6HR MAX TEMP:  76;

MIDDLEBURY*    FAIR      78  58  51 S5        30.05F
6HR MIN TEMP:  66; 6HR MAX TEMP:  78;

RUTLAND*       CLOUDY    75  55  50 N3        30.09S
6HR MIN TEMP:  63; 6HR MAX TEMP:  75;

SPRINGFIELD    PTSUNNY   80  55  42 VRB3      30.06F
6HR MIN TEMP:  60; 6HR MAX TEMP:  80;

HIGHGATE*      FAIR      77  62  58 SW3       30.03F
6HR MIN TEMP:  66; 6HR MAX TEMP:  77;

NEWPORT*       FAIR      73  60  64 SW7       30.06F
6HR MIN TEMP:  61; 6HR MAX TEMP:  73;

BENNINGTON     PTSUNNY   80  61  52 S6        30.08F
6HR MIN TEMP:  60; 6HR MAX TEMP:  80;

GALLUP MILLS*    N/A     73 N/A N/A MISG        N/A
MT. MANSFIELD*   N/A     63 N/A N/A NW9         N/A

_____LAKE CHAMPLAIN_____


CITY           SKY/WX    TMP DP  RH WIND       PRES   REMARKS
COLCHESTER RF*   N/A     73  64  73 S8          N/A
DIAMOND ISL*     N/A     75  61  60 NW3         N/A

$$

NYZ007-026>031-035-052-083-301900-
_____NORTHERN NEW YORK_____


CITY           SKY/WX    TMP DP  RH WIND       PRES   REMARKS
PLATTSBURGH    PTSUNNY   76  61  59 SE13      30.03F
6HR MIN TEMP:  66; 6HR MAX TEMP:  78; 6HR PCP: TRACE;

SARANAC LAKE   MOSUNNY   75  56  51 VRB6      30.08F
6HR MIN TEMP:  61; 6HR MAX TEMP:  75;

MASSENA        SUNNY     78  60  53 W6        30.05F
6HR MIN TEMP:  62; 6HR MAX TEMP:  78;

OGDENSBURG*    SUNNY     81  63  54 SW5       30.04F
POTSDAM*       SUNNY     79  64  61 NW7       30.04F
STARK FALLS*     N/A     75 N/A N/A NW5         N/A
WATERTOWN      CLOUDY    75  61  61 W7        30.06F
6HR MIN TEMP:  63; 6HR MAX TEMP:  76;

FT DRUM        MOSUNNY   76  59  56 VRB2      30.07S
6HR MIN TEMP:  63; 6HR MAX TEMP:  76;

ALBANY         PTSUNNY   81  61  50 CALM      30.06F
6HR MIN TEMP:  66; 6HR MAX TEMP:  81;

GLENS FALLS    CLOUDY    77  59  53 S6        30.05F
6HR MIN TEMP:  64; 6HR MAX TEMP:  77;


$$
NHZ002-005-011-301900-
_____NEW HAMPSHIRE_____


CITY           SKY/WX    TMP DP  RH WIND       PRES   REMARKS
LEBANON        PTSUNNY   80  54  40 W5        30.04F
6HR MIN TEMP:  63; 6HR MAX TEMP:  82;

KEENE          PTSUNNY   79  59  50 S5        30.06S
6HR MIN TEMP:  57; 6HR MAX TEMP:  81;

MT WASHINGTON  FOG       50  48  93 W13G23      N/A  VSB 1/8
6HR MIN TEMP:  46; 6HR MAX TEMP:  53;

PLYMOUTH       FAIR      79  59  50 NW6       30.04S
6HR MIN TEMP:  60; 6HR MAX TEMP:  78;

WHITEFIELD     PTSUNNY   75  59  57 W5        30.07F
6HR MIN TEMP:  61; 6HR MAX TEMP:  76;


$$

_____REGIONAL QUEBEC LOCATIONS_____


CITY           SKY/WX    TMP DP  RH WIND       PRES   REMARKS
MONTREAL       PTSUNNY   75  61  60 W14       30.02F
QUEBEC CITY    PTSUNNY   75  64  69 SW15      29.97F
SHERBROOKE     CLOUDY    70  61  73 SW8       30.04F

_____REGIONAL ONTARIO LOCATIONS_____


CITY           SKY/WX    TMP DP  RH WIND       PRES   REMARKS
OTTAWA         PTSUNNY   73  61  64 W8        30.05F

______KEY______
VSB  - VISIBILITY IN MILES
WCI  - WIND CHILL INDEX
HX   - HEAT INDEX
$$
NNNN



USA.gov is the U.S. government's official web portal to all federal, state and local government web resources and services.